Printer-friendly version

IAU Minor Planet Center

Minor Planet Center

MPEC 2006-W45 : 2006 WZ2

The following Minor Planet Electronic Circular may be linked-to from your own Web pages, but must not otherwise be redistributed electronically.


Read MPEC 2006-W44 Read MPEC 2006-W46


M.P.E.C. 2006-W45                                Issued 2006 Nov. 21, 22:17 UT

     The Minor Planet Electronic Circulars contain information on unusual
         minor planets and routine data on comets.  They are published
   on behalf of Commission 20 of the International Astronomical Union by the
          Minor Planet Center, Smithsonian Astrophysical Observatory,
                          Cambridge, MA 02138, U.S.A.

             Prepared using the Tamkin Foundation Computer Network

                              MPC@CFA.HARVARD.EDU
          URL http://cfa-www.harvard.edu/iau/mpc.html  ISSN 1523-6714

                                   2006 WZ2

Observations:
     K06W02Z* C2006 11 17.50883 12 05 12.22 +15 38 54.9          19.6 V EW045703
     K06W02Z  C2006 11 17.51495 12 05 13.05 +15 38 45.5          20.5 V EW045703
     K06W02Z  C2006 11 17.52102 12 05 13.92 +15 38 39.2          19.8 V EW045703
     K06W02Z  C2006 11 17.52716 12 05 14.46 +15 38 31.9          19.9 V EW045703
     K06W02Z  C2006 11 18.20857 12 06 38.93 +15 24 16.1                 EW045J95
     K06W02Z  C2006 11 18.21257 12 06 39.36 +15 24 10.3                 EW045J95
     K06W02Z  C2006 11 18.21657 12 06 39.86 +15 24 04.5          20.0 R EW045J95
     K06W02Z  C2006 11 18.46601 12 07 10.53 +15 18 54.1          19.1 R EW045734
     K06W02Z  C2006 11 18.46903 12 07 10.98 +15 18 50.8          19.8 R EW045734
     K06W02Z  C2006 11 18.47279 12 07 11.42 +15 18 46.5          19.8 R EW045734
     K06W02Z  C2006 11 18.49017 12 07 13.62 +15 18 24.4          20.1 V EW045G96
     K06W02Z  C2006 11 18.49373 12 07 14.01 +15 18 19.6          19.9 V EW045G96
     K06W02Z  C2006 11 18.49728 12 07 14.44 +15 18 15.2          20.1 V EW045G96
     K06W02Z  C2006 11 18.50079 12 07 14.88 +15 18 10.8          20.1 V EW045G96
     K06W02Z  C2006 11 18.51173 12 07 16.24 +15 17 57.7          20.0 V EW045G96
     K06W02Z  C2006 11 18.52983 12 07 18.44 +15 17 35.0          19.9 V EW045G96
     K06W02Z  C2006 11 18.53507 12 07 19.09 +15 17 28.2          20.0 V EW045G96
     K06W02Z  C2006 11 18.54041 12 07 19.70 +15 17 22.2          18.6 V EW045G96
     K06W02Z  C2006 11 19.50851 12 09 18.07 +14 57 12.4          20.0 V EW045G96
     K06W02Z  C2006 11 19.51390 12 09 18.72 +14 57 05.9          20.1 V EW045G96
     K06W02Z  C2006 11 19.51936 12 09 19.36 +14 56 59.1          20.0 V EW045G96
     K06W02Z  C2006 11 19.52482 12 09 20.05 +14 56 52.0          19.9 V EW045G96
     K06W02Z  C2006 11 20.48858 12 11 16.54 +14 36 52.6          19.9 V EW045G96
     K06W02Z  C2006 11 20.49338 12 11 17.12 +14 36 46.6          19.8 V EW045G96
     K06W02Z  C2006 11 20.49816 12 11 17.70 +14 36 40.5          19.8 V EW045G96
     K06W02Z  C2006 11 20.50295 12 11 18.27 +14 36 34.6          19.9 V EW045G96
     K06W02Z  C2006 11 21.22095 12 12 44.14 +14 21 42.5                 EW045J95
     K06W02Z  C2006 11 21.22725 12 12 44.94 +14 21 34.1          20.3 R EW045J95
     K06W02Z  C2006 11 21.52071 12 13 19.88 +14 15 32.4          20.1 V EW045G96
     K06W02Z  C2006 11 21.52246 12 13 20.10 +14 15 30.2          20.0 V EW045G96
     K06W02Z  C2006 11 21.52422 12 13 20.31 +14 15 28.1          20.3 V EW045G96
     K06W02Z  C2006 11 21.52598 12 13 20.49 +14 15 26.0          20.1 V EW045G96
     K06W02Z  C2006 11 21.53049 12 13 21.03 +14 15 20.9          19.4 V EW045G96
     K06W02Z  C2006 11 21.53174 12 13 21.18 +14 15 19.6          19.4 V EW045G96
     K06W02Z  C2006 11 21.53297 12 13 21.32 +14 15 17.8          19.6 V EW045G96

Observer details:
703 Catalina Sky Survey.  Observer E. J. Christensen.  Measurers E. C. Beshore,
    E. J. Christensen, G. J. Garradd, A. R. Gibbs, A. D. Grauer, R. E. Hill,
    R. A. Kowalski, S. M. Larson, R. H. McNaught.  0.68-m Schmidt + CCD.
734 Farpoint Observatory.  Observer G. Hug.  Measurer D. Tibbets.  0.7-m
    reflector + CCD.
G96 Mt. Lemmon Survey.  Observers S. M. Larson, A. R. Gibbs.  Measurers
    E. C. Beshore, E. J. Christensen, G. J. Garradd, A. R. Gibbs, A. D. Grauer,
    R. E. Hill, R. A. Kowalski, S. M. Larson, R. H. McNaught.  1.5-m reflector
    + CCD.
J95 Great Shefford.  Observer P. Birtwhistle.  0.40-m f/6.0 Schmidt-Cassegrain
    + CCD.

Orbital elements:
2006 WZ2
Epoch 2006 Sept. 22.0 TT = JDT 2454000.5                MPC
M 359.25991              (2000.0)            P               Q
n   0.04686800     Peri.  110.27311     -0.38480948     -0.92279345
a   7.6187737      Node     2.60998     +0.60546112     -0.26818237
e   0.7929662      Incl.   25.12804     +0.69666240     -0.27664141
P  21.03           H   16.1           G   0.15           U   8
Residuals in seconds of arc
061117 703  1.3-  0.6+    061118 G96  0.6-  0.3-    061120 G96  0.1-  0.1-
061117 703  0.2-  1.2-    061118 G96  0.4-  0.3-    061120 G96  0.1-  0.1-
061117 703  1.6+  0.1+    061118 G96  0.0   0.2+    061121 J95  0.2-  0.1-
061117 703  1.5-  0.5+    061118 G96  0.1-  0.1+    061121 J95  0.6+  0.7-
061118 J95  0.9+  0.4+    061118 G96  0.1+  0.2-    061121 G96  0.1-  0.2-
061118 J95  0.1+  0.4-    061118 G96  0.5-  0.5+    061121 G96  0.1+  0.3-
061118 J95  0.2+  1.2-    061119 G96  0.1-  0.0     061121 G96  0.1+  0.2-
061118 734  1.2-  0.1-    061119 G96  0.0   0.2+    061121 G96  0.3-  0.1-
061118 734  0.0   0.4+    061119 G96  0.3-  0.1+    061121 G96  0.1-  0.3+
061118 734  0.3-  0.8+    061119 G96  0.2+  0.2-    061121 G96  0.1-  0.6+
061118 G96  0.1+  0.1+    061120 G96  0.4-  0.2+    061121 G96  0.2-  0.3+
061118 G96  0.6-  0.3-    061120 G96  0.3-  0.1+

Ephemeris:
2006 WZ2                 a,e,i = 7.62, 0.79, 25                  q = 1.5773
Date    TT    R. A. (2000) Decl.     Delta      r     Elong.  Phase     V
2006 11 21    12 12.29   +14 26.3    1.874    1.666    62.5    31.7    19.9
2006 12 01    12 31.09   +11 03.9    1.841    1.708    66.6    32.0    19.9
2006 12 11    12 47.67   +07 50.9    1.805    1.757    71.3    32.1    20.0
2006 12 21    13 01.96   +04 48.6    1.764    1.811    76.7    31.9    20.0
2006 12 31    13 13.83   +01 57.8    1.718    1.871    82.9    31.4    20.0
2007 01 10    13 23.07   -00 41.6    1.670    1.935    89.8    30.5    20.0
2007 01 20    13 29.40   -03 09.6    1.620    2.003    97.6    29.1    19.9
2007 01 30    13 32.50   -05 25.9    1.571    2.074   106.2    27.1    19.9
2007 02 09    13 32.13   -07 30.1    1.527    2.147   115.6    24.5    19.8
2007 02 19    13 28.14   -09 20.8    1.492    2.222   126.0    21.1    19.7
2007 03 01    13 20.66   -10 56.0    1.472    2.299   137.1    17.0    19.7
2007 03 11    13 10.28   -12 13.5    1.471    2.377   148.8    12.5    19.6
2007 03 21    12 58.01   -13 11.7    1.495    2.456   160.4     7.8    19.5
2007 03 31    12 45.19   -13 51.0    1.547    2.536   169.8     4.0    19.4
2007 04 10    12 33.21   -14 14.9    1.628    2.617   168.3     4.4    19.6
2007 04 20    12 23.14   -14 28.1    1.737    2.698   158.7     7.8    20.0
2007 04 30    12 15.64   -14 36.6    1.872    2.779   148.2    11.0    20.4
2007 05 10    12 10.92   -14 45.1    2.028    2.860   138.0    13.7    20.7
2007 05 20    12 08.85   -14 57.0    2.204    2.941   128.4    15.6    21.0
2007 05 30    12 09.20   -15 14.5    2.394    3.022   119.3    17.0    21.3
2007 06 09    12 11.61   -15 38.4    2.595    3.103   110.7    17.8    21.6
2007 06 19    12 15.76   -16 08.9    2.804    3.183   102.5    18.2    21.8
2007 06 29    12 21.35   -16 45.9    3.018    3.263    94.7    18.1    22.0

Kyle E. Smalley              (C) Copyright 2006 MPC           M.P.E.C. 2006-W45

Read MPEC 2006-W44 Read MPEC 2006-W46


Our Web policy. Index to the CBAT/MPC/ICQ pages.


Valid HTML 4.01!